owner,sensor,date,latitude,longitude,vertical_datum,wind_speed,wind_to_direction,wind_speed_of_gust,qcFlag 
WAVCIS,ioos:station:WAVCIS:CSI03:3,2015-07-01T00:00:00Z,29.4412,-92.0613,10.0,11.28,265.0,,'11111222,11111222,99999999' 
WAVCIS,ioos:station:WAVCIS:CSI03:3,2015-07-01T01:00:00Z,29.4412,-92.0613,10.0,5.776,247.0,,'11111222,11111222,99999999' 
WAVCIS,ioos:station:WAVCIS:CSI03:3,2015-07-01T02:00:00Z,29.4412,-92.0613,10.0,0.545,248.0,,'11111222,11111222,99999999' 
WAVCIS,ioos:station:WAVCIS:CSI03:3,2015-07-01T03:00:00Z,29.4412,-92.0613,10.0,0.604,345.0,,'11111222,11111222,99999999' 
WAVCIS,ioos:station:WAVCIS:CSI03:3,2015-07-01T04:00:00Z,29.4412,-92.0613,10.0,0.549,49.0,,'11111222,11111222,99999999' 
WAVCIS,ioos:station:WAVCIS:CSI03:3,2015-07-01T05:00:00Z,29.4412,-92.0613,10.0,0.182,0.0,,'11111222,11111222,99999999' 
WAVCIS,ioos:station:WAVCIS:CSI03:3,2015-07-01T06:00:00Z,29.4412,-92.0613,10.0,2.643,122.0,,'11111222,11111222,99999999' 
WAVCIS,ioos:station:WAVCIS:CSI03:3,2015-07-01T07:00:00Z,29.4412,-92.0613,10.0,4.328,182.0,,'11111222,11111222,99999999' 
WAVCIS,ioos:station:WAVCIS:CSI03:3,2015-07-01T08:00:00Z,29.4412,-92.0613,10.0,4.808,179.0,,'11111222,11111222,99999999' 
WAVCIS,ioos:station:WAVCIS:CSI03:3,2015-07-01T09:00:00Z,29.4412,-92.0613,10.0,3.023,188.0,,'11111222,11111222,99999999' 
WAVCIS,ioos:station:WAVCIS:CSI03:3,2015-07-01T10:00:00Z,29.4412,-92.0613,10.0,3.383,187.0,,'11111222,11111222,99999999' 
WAVCIS,ioos:station:WAVCIS:CSI03:3,2015-07-01T11:00:00Z,29.4412,-92.0613,10.0,5.601,176.0,,'11111222,11111222,99999999' 
WAVCIS,ioos:station:WAVCIS:CSI03:3,2015-07-01T12:00:00Z,29.4412,-92.0613,10.0,3.126,184.0,,'11111222,11111222,99999999' 
WAVCIS,ioos:station:WAVCIS:CSI03:3,2015-07-01T13:00:00Z,29.4412,-92.0613,10.0,4.462,180.0,,'11111222,11111222,99999999' 
WAVCIS,ioos:station:WAVCIS:CSI03:3,2015-07-01T14:00:00Z,29.4412,-92.0613,10.0,3.033,193.0,,'11111222,11111222,99999999' 
WAVCIS,ioos:station:WAVCIS:CSI03:3,2015-07-01T15:00:00Z,29.4412,-92.0613,10.0,3.084,194.0,,'11111222,11111222,99999999' 
WAVCIS,ioos:station:WAVCIS:CSI03:3,2015-07-01T16:00:00Z,29.4412,-92.0613,10.0,2.485,194.0,,'11111222,11111222,99999999' 
WAVCIS,ioos:station:WAVCIS:CSI03:3,2015-07-01T17:00:00Z,29.4412,-92.0613,10.0,3.732,196.0,,'11111222,11111222,99999999' 
WAVCIS,ioos:station:WAVCIS:CSI03:3,2015-07-01T18:00:00Z,29.4412,-92.0613,10.0,3.868,196.0,,'11111222,11111222,99999999' 
WAVCIS,ioos:station:WAVCIS:CSI03:3,2015-07-01T19:00:00Z,29.4412,-92.0613,10.0,3.798,198.0,,'11111222,11111222,99999999' 
WAVCIS,ioos:station:WAVCIS:CSI03:3,2015-07-01T20:00:00Z,29.4412,-92.0613,10.0,1.941,201.0,,'11111222,11111222,99999999' 
WAVCIS,ioos:station:WAVCIS:CSI03:3,2015-07-01T21:00:00Z,29.4412,-92.0613,10.0,2.098,215.0,,'11111222,11111222,99999999' 
WAVCIS,ioos:station:WAVCIS:CSI03:3,2015-07-01T22:00:00Z,29.4412,-92.0613,10.0,1.578,204.0,,'11111222,11111222,99999999' 
WAVCIS,ioos:station:WAVCIS:CSI03:3,2015-07-01T23:00:00Z,29.4412,-92.0613,10.0,1.972,235.0,,'11111222,11111222,99999999' 
WAVCIS,ioos:station:WAVCIS:CSI03:3,2015-07-02T00:00:00Z,29.4412,-92.0613,10.0,0.658,214.0,,'11111222,11111222,99999999' 
WAVCIS,ioos:station:WAVCIS:CSI03:3,2015-07-02T01:00:00Z,29.4412,-92.0613,10.0,1.037,209.0,,'11111222,11111222,99999999' 
WAVCIS,ioos:station:WAVCIS:CSI03:3,2015-07-02T02:00:00Z,29.4412,-92.0613,10.0,1.165,223.0,,'11111222,11111222,99999999' 
WAVCIS,ioos:station:WAVCIS:CSI03:3,2015-07-02T03:00:00Z,29.4412,-92.0613,10.0,0.564,209.0,,'11111222,11111222,99999999' 
WAVCIS,ioos:station:WAVCIS:CSI03:3,2015-07-02T04:00:00Z,29.4412,-92.0613,10.0,1.572,54.0,,'11111222,11111222,99999999' 
WAVCIS,ioos:station:WAVCIS:CSI03:3,2015-07-02T05:00:00Z,29.4412,-92.0613,10.0,0.826,320.0,,'11111222,11111222,99999999' 
WAVCIS,ioos:station:WAVCIS:CSI03:3,2015-07-02T06:00:00Z,29.4412,-92.0613,10.0,1.825,184.0,,'11111222,11111222,99999999' 
WAVCIS,ioos:station:WAVCIS:CSI03:3,2015-07-02T07:00:00Z,29.4412,-92.0613,10.0,2.738,196.0,,'11111222,11111222,99999999' 
WAVCIS,ioos:station:WAVCIS:CSI03:3,2015-07-02T08:00:00Z,29.4412,-92.0613,10.0,2.261,202.0,,'11111222,11111222,99999999' 
WAVCIS,ioos:station:WAVCIS:CSI03:3,2015-07-02T09:00:00Z,29.4412,-92.0613,10.0,1.734,225.0,,'11111222,11111222,99999999' 
WAVCIS,ioos:station:WAVCIS:CSI03:3,2015-07-02T10:00:00Z,29.4412,-92.0613,10.0,1.513,231.0,,'11111222,11111222,99999999' 
WAVCIS,ioos:station:WAVCIS:CSI03:3,2015-07-02T11:00:00Z,29.4412,-92.0613,10.0,1.631,235.0,,'11111222,11111222,99999999' 
WAVCIS,ioos:station:WAVCIS:CSI03:3,2015-07-02T12:00:00Z,29.4412,-92.0613,10.0,1.968,233.0,,'11111222,11111222,99999999' 
WAVCIS,ioos:station:WAVCIS:CSI03:3,2015-07-02T13:00:00Z,29.4412,-92.0613,10.0,4.232,241.0,,'11111222,11111222,99999999' 
WAVCIS,ioos:station:WAVCIS:CSI03:3,2015-07-02T14:00:00Z,29.4412,-92.0613,10.0,3.521,251.0,,'11111222,11111222,99999999' 
WAVCIS,ioos:station:WAVCIS:CSI03:3,2015-07-02T15:00:00Z,29.4412,-92.0613,10.0,0.753,197.0,,'11111222,11111222,99999999' 
WAVCIS,ioos:station:WAVCIS:CSI03:3,2015-07-02T16:00:00Z,29.4412,-92.0613,10.0,1.001,188.0,,'11111222,11111222,99999999' 
WAVCIS,ioos:station:WAVCIS:CSI03:3,2015-07-02T17:00:00Z,29.4412,-92.0613,10.0,0.816,187.0,,'11111222,11111222,99999999' 
WAVCIS,ioos:station:WAVCIS:CSI03:3,2015-07-02T18:00:00Z,29.4412,-92.0613,10.0,2.085,179.0,,'11111222,11111222,99999999' 
WAVCIS,ioos:station:WAVCIS:CSI03:3,2015-07-02T19:00:00Z,29.4412,-92.0613,10.0,2.292,188.0,,'11111222,11111222,99999999' 
WAVCIS,ioos:station:WAVCIS:CSI03:3,2015-07-02T20:00:00Z,29.4412,-92.0613,10.0,2.923,188.0,,'11111222,11111222,99999999' 
WAVCIS,ioos:station:WAVCIS:CSI03:3,2015-07-02T21:00:00Z,29.4412,-92.0613,10.0,3.297,194.0,,'11111222,11111222,99999999' 
WAVCIS,ioos:station:WAVCIS:CSI03:3,2015-07-02T22:00:00Z,29.4412,-92.0613,10.0,2.758,190.0,,'11111222,11111222,99999999' 
WAVCIS,ioos:station:WAVCIS:CSI03:3,2015-07-02T23:00:00Z,29.4412,-92.0613,10.0,3.043,187.0,,'11111222,11111222,99999999' 
WAVCIS,ioos:station:WAVCIS:CSI03:3,2015-07-03T00:00:00Z,29.4412,-92.0613,10.0,2.725,194.0,,'11111222,11111222,99999999' 
WAVCIS,ioos:station:WAVCIS:CSI03:3,2015-07-03T01:00:00Z,29.4412,-92.0613,10.0,3.07,192.0,,'11111222,11111222,99999999' 
WAVCIS,ioos:station:WAVCIS:CSI03:3,2015-07-03T02:00:00Z,29.4412,-92.0613,10.0,2.914,192.0,,'11111222,11111222,99999999' 
WAVCIS,ioos:station:WAVCIS:CSI03:3,2015-07-03T03:00:00Z,29.4412,-92.0613,10.0,3.285,190.0,,'11111222,11111222,99999999' 
WAVCIS,ioos:station:WAVCIS:CSI03:3,2015-07-03T04:00:00Z,29.4412,-92.0613,10.0,3.699,196.0,,'11111222,11111222,99999999' 
WAVCIS,ioos:station:WAVCIS:CSI03:3,2015-07-03T05:00:00Z,29.4412,-92.0613,10.0,2.969,194.0,,'11111222,11111222,99999999' 
WAVCIS,ioos:station:WAVCIS:CSI03:3,2015-07-03T06:00:00Z,29.4412,-92.0613,10.0,2.188,191.0,,'11111222,11111222,99999999' 
WAVCIS,ioos:station:WAVCIS:CSI03:3,2015-07-03T07:00:00Z,29.4412,-92.0613,10.0,2.574,198.0,,'11111222,11111222,99999999' 
WAVCIS,ioos:station:WAVCIS:CSI03:3,2015-07-03T08:00:00Z,29.4412,-92.0613,10.0,3.593,196.0,,'11111222,11111222,99999999' 
WAVCIS,ioos:station:WAVCIS:CSI03:3,2015-07-03T09:00:00Z,29.4412,-92.0613,10.0,3.495,199.0,,'11111222,11111222,99999999' 
WAVCIS,ioos:station:WAVCIS:CSI03:3,2015-07-03T10:00:00Z,29.4412,-92.0613,10.0,3.631,194.0,,'11111222,11111222,99999999' 
WAVCIS,ioos:station:WAVCIS:CSI03:3,2015-07-03T11:00:00Z,29.4412,-92.0613,10.0,3.75,196.0,,'11111222,11111222,99999999' 
WAVCIS,ioos:station:WAVCIS:CSI03:3,2015-07-03T12:00:00Z,29.4412,-92.0613,10.0,1.716,222.0,,'11111222,11111222,99999999' 
WAVCIS,ioos:station:WAVCIS:CSI03:3,2015-07-03T13:00:00Z,29.4412,-92.0613,10.0,2.498,227.0,,'11111222,11111222,99999999' 
WAVCIS,ioos:station:WAVCIS:CSI03:3,2015-07-03T14:00:00Z,29.4412,-92.0613,10.0,2.051,233.0,,'11111222,11111222,99999999' 
WAVCIS,ioos:station:WAVCIS:CSI03:3,2015-07-03T15:00:00Z,29.4412,-92.0613,10.0,3.561,249.0,,'11111222,11111222,99999999' 
WAVCIS,ioos:station:WAVCIS:CSI03:3,2015-07-03T16:00:00Z,29.4412,-92.0613,10.0,1.612,231.0,,'11111222,11111222,99999999' 
WAVCIS,ioos:station:WAVCIS:CSI03:3,2015-07-03T17:00:00Z,29.4412,-92.0613,10.0,1.565,240.0,,'11111222,11111222,99999999' 
WAVCIS,ioos:station:WAVCIS:CSI03:3,2015-07-03T18:00:00Z,29.4412,-92.0613,10.0,1.027,230.0,,'11111222,11111222,99999999' 
WAVCIS,ioos:station:WAVCIS:CSI03:3,2015-07-03T19:00:00Z,29.4412,-92.0613,10.0,1.163,196.0,,'11111222,11111222,99999999' 
WAVCIS,ioos:station:WAVCIS:CSI03:3,2015-07-03T20:00:00Z,29.4412,-92.0613,10.0,1.452,196.0,,'11111222,11111222,99999999' 
WAVCIS,ioos:station:WAVCIS:CSI03:3,2015-07-03T21:00:00Z,29.4412,-92.0613,10.0,1.944,189.0,,'11111222,11111222,99999999' 
WAVCIS,ioos:station:WAVCIS:CSI03:3,2015-07-03T22:00:00Z,29.4412,-92.0613,10.0,1.63,188.0,,'11111222,11111222,99999999' 
WAVCIS,ioos:station:WAVCIS:CSI03:3,2015-07-03T23:00:00Z,29.4412,-92.0613,10.0,2.189,190.0,,'11111222,11111222,99999999' 
WAVCIS,ioos:station:WAVCIS:CSI03:3,2015-07-04T00:00:00Z,29.4412,-92.0613,10.0,2.931,192.0,,'11111222,11111222,99999999' 
WAVCIS,ioos:station:WAVCIS:CSI03:3,2015-07-04T01:00:00Z,29.4412,-92.0613,10.0,2.732,192.0,,'11111222,11111222,99999999' 
WAVCIS,ioos:station:WAVCIS:CSI03:3,2015-07-04T02:00:00Z,29.4412,-92.0613,10.0,3.079,195.0,,'11111222,11111222,99999999' 
WAVCIS,ioos:station:WAVCIS:CSI03:3,2015-07-04T03:00:00Z,29.4412,-92.0613,10.0,3.032,188.0,,'11111222,11111222,99999999' 
WAVCIS,ioos:station:WAVCIS:CSI03:3,2015-07-04T04:00:00Z,29.4412,-92.0613,10.0,3.413,194.0,,'11111222,11111222,99999999' 
WAVCIS,ioos:station:WAVCIS:CSI03:3,2015-07-04T05:00:00Z,29.4412,-92.0613,10.0,4.397,197.0,,'11111222,11111222,99999999' 
WAVCIS,ioos:station:WAVCIS:CSI03:3,2015-07-04T06:00:00Z,29.4412,-92.0613,10.0,3.33,197.0,,'11111222,11111222,99999999' 
WAVCIS,ioos:station:WAVCIS:CSI03:3,2015-07-04T07:00:00Z,29.4412,-92.0613,10.0,3.316,196.0,,'11111222,11111222,99999999' 
WAVCIS,ioos:station:WAVCIS:CSI03:3,2015-07-04T08:00:00Z,29.4412,-92.0613,10.0,3.025,201.0,,'11111222,11111222,99999999' 
WAVCIS,ioos:station:WAVCIS:CSI03:3,2015-07-04T09:00:00Z,29.4412,-92.0613,10.0,1.759,215.0,,'11111222,11111222,99999999' 
WAVCIS,ioos:station:WAVCIS:CSI03:3,2015-07-04T10:00:00Z,29.4412,-92.0613,10.0,2.219,199.0,,'11111222,11111222,99999999' 
WAVCIS,ioos:station:WAVCIS:CSI03:3,2015-07-04T11:00:00Z,29.4412,-92.0613,10.0,3.001,211.0,,'11111222,11111222,99999999' 
WAVCIS,ioos:station:WAVCIS:CSI03:3,2015-07-04T12:00:00Z,29.4412,-92.0613,10.0,2.987,231.0,,'11111222,11111222,99999999' 
WAVCIS,ioos:station:WAVCIS:CSI03:3,2015-07-04T13:00:00Z,29.4412,-92.0613,10.0,2.306,221.0,,'11111222,11111222,99999999' 
WAVCIS,ioos:station:WAVCIS:CSI03:3,2015-07-04T14:00:00Z,29.4412,-92.0613,10.0,1.804,208.0,,'11111222,11111222,99999999' 
WAVCIS,ioos:station:WAVCIS:CSI03:3,2015-07-04T15:00:00Z,29.4412,-92.0613,10.0,3.175,242.0,,'11111222,11111222,99999999' 
WAVCIS,ioos:station:WAVCIS:CSI03:3,2015-07-04T16:00:00Z,29.4412,-92.0613,10.0,1.199,206.0,,'11111222,11111222,99999999' 
WAVCIS,ioos:station:WAVCIS:CSI03:3,2015-07-04T17:00:00Z,29.4412,-92.0613,10.0,1.586,217.0,,'11111222,11111222,99999999' 
WAVCIS,ioos:station:WAVCIS:CSI03:3,2015-07-04T18:00:00Z,29.4412,-92.0613,10.0,1.583,219.0,,'11111222,11111222,99999999' 
WAVCIS,ioos:station:WAVCIS:CSI03:3,2015-07-04T19:00:00Z,29.4412,-92.0613,10.0,2.174,197.0,,'11111222,11111222,99999999' 
WAVCIS,ioos:station:WAVCIS:CSI03:3,2015-07-04T20:00:00Z,29.4412,-92.0613,10.0,0.787,213.0,,'11111222,11111222,99999999' 
WAVCIS,ioos:station:WAVCIS:CSI03:3,2015-07-04T21:00:00Z,29.4412,-92.0613,10.0,1.571,238.0,,'11111222,11111222,99999999' 
WAVCIS,ioos:station:WAVCIS:CSI03:3,2015-07-04T22:00:00Z,29.4412,-92.0613,10.0,1.647,226.0,,'11111222,11111222,99999999' 
WAVCIS,ioos:station:WAVCIS:CSI03:3,2015-07-04T23:00:00Z,29.4412,-92.0613,10.0,0.518,222.0,,'11111222,11111222,99999999' 
WAVCIS,ioos:station:WAVCIS:CSI03:3,2015-07-05T00:00:00Z,29.4412,-92.0613,10.0,0.916,213.0,,'11111222,11111222,99999999' 
WAVCIS,ioos:station:WAVCIS:CSI03:3,2015-07-05T01:00:00Z,29.4412,-92.0613,10.0,0.775,202.0,,'11111222,11111222,99999999' 
WAVCIS,ioos:station:WAVCIS:CSI03:3,2015-07-05T02:00:00Z,29.4412,-92.0613,10.0,1.834,189.0,,'11111222,11111222,99999999' 
WAVCIS,ioos:station:WAVCIS:CSI03:3,2015-07-05T03:00:00Z,29.4412,-92.0613,10.0,2.181,190.0,,'11111222,11111222,99999999' 
WAVCIS,ioos:station:WAVCIS:CSI03:3,2015-07-05T04:00:00Z,29.4412,-92.0613,10.0,2.144,190.0,,'11111222,11111222,99999999' 
WAVCIS,ioos:station:WAVCIS:CSI03:3,2015-07-05T05:00:00Z,29.4412,-92.0613,10.0,3.274,179.0,,'11111222,11111222,99999999' 
WAVCIS,ioos:station:WAVCIS:CSI03:3,2015-07-05T06:00:00Z,29.4412,-92.0613,10.0,2.926,184.0,,'11111222,11111222,99999999' 
WAVCIS,ioos:station:WAVCIS:CSI03:3,2015-07-05T07:00:00Z,29.4412,-92.0613,10.0,2.952,187.0,,'11111222,11111222,99999999' 
WAVCIS,ioos:station:WAVCIS:CSI03:3,2015-07-05T08:00:00Z,29.4412,-92.0613,10.0,3.097,193.0,,'11111222,11111222,99999999' 
WAVCIS,ioos:station:WAVCIS:CSI03:3,2015-07-05T09:00:00Z,29.4412,-92.0613,10.0,4.036,197.0,,'11111222,11111222,99999999' 
WAVCIS,ioos:station:WAVCIS:CSI03:3,2015-07-05T10:00:00Z,29.4412,-92.0613,10.0,3.189,198.0,,'11111222,11111222,99999999' 
WAVCIS,ioos:station:WAVCIS:CSI03:3,2015-07-05T11:00:00Z,29.4412,-92.0613,10.0,1.123,215.0,,'11111222,11111222,99999999' 
WAVCIS,ioos:station:WAVCIS:CSI03:3,2015-07-05T12:00:00Z,29.4412,-92.0613,10.0,4.019,198.0,,'11111222,11111222,99999999' 
WAVCIS,ioos:station:WAVCIS:CSI03:3,2015-07-05T13:00:00Z,29.4412,-92.0613,10.0,2.016,199.0,,'11111222,11111222,99999999' 
WAVCIS,ioos:station:WAVCIS:CSI03:3,2015-07-05T14:00:00Z,29.4412,-92.0613,10.0,2.249,195.0,,'11111222,11111222,99999999' 
WAVCIS,ioos:station:WAVCIS:CSI03:3,2015-07-05T15:00:00Z,29.4412,-92.0613,10.0,2.468,197.0,,'11111222,11111222,99999999' 
WAVCIS,ioos:station:WAVCIS:CSI03:3,2015-07-05T16:00:00Z,29.4412,-92.0613,10.0,1.596,197.0,,'11111222,11111222,99999999' 
WAVCIS,ioos:station:WAVCIS:CSI03:3,2015-07-05T17:00:00Z,29.4412,-92.0613,10.0,1.861,191.0,,'11111222,11111222,99999999' 
WAVCIS,ioos:station:WAVCIS:CSI03:3,2015-07-05T18:00:00Z,29.4412,-92.0613,10.0,1.868,197.0,,'11111222,11111222,99999999' 
WAVCIS,ioos:station:WAVCIS:CSI03:3,2015-07-05T19:00:00Z,29.4412,-92.0613,10.0,1.392,202.0,,'11111222,11111222,99999999' 
WAVCIS,ioos:station:WAVCIS:CSI03:3,2015-07-05T20:00:00Z,29.4412,-92.0613,10.0,1.738,225.0,,'11111222,11111222,99999999' 
WAVCIS,ioos:station:WAVCIS:CSI03:3,2015-07-05T21:00:00Z,29.4412,-92.0613,10.0,4.176,240.0,,'11111222,11111222,99999999' 
WAVCIS,ioos:station:WAVCIS:CSI03:3,2015-07-05T22:00:00Z,29.4412,-92.0613,10.0,2.263,235.0,,'11111222,11111222,99999999' 
WAVCIS,ioos:station:WAVCIS:CSI03:3,2015-07-05T23:00:00Z,29.4412,-92.0613,10.0,1.445,222.0,,'11111222,11111222,99999999' 
WAVCIS,ioos:station:WAVCIS:CSI03:3,2015-07-06T00:00:00Z,29.4412,-92.0613,10.0,2.187,194.0,,'11111222,11111222,99999999' 
WAVCIS,ioos:station:WAVCIS:CSI03:3,2015-07-06T01:00:00Z,29.4412,-92.0613,10.0,2.569,192.0,,'11111222,11111222,99999999' 
WAVCIS,ioos:station:WAVCIS:CSI03:3,2015-07-06T02:00:00Z,29.4412,-92.0613,10.0,3.056,160.0,,'11111222,11111222,99999999' 
WAVCIS,ioos:station:WAVCIS:CSI03:3,2015-07-06T03:00:00Z,29.4412,-92.0613,10.0,4.699,150.0,,'11111222,11111222,99999999' 
WAVCIS,ioos:station:WAVCIS:CSI03:3,2015-07-06T04:00:00Z,29.4412,-92.0613,10.0,8.93,129.0,,'11111222,11111222,99999999' 
WAVCIS,ioos:station:WAVCIS:CSI03:3,2015-07-06T05:00:00Z,29.4412,-92.0613,10.0,8.03,135.0,,'11111222,11111222,99999999' 
WAVCIS,ioos:station:WAVCIS:CSI03:3,2015-07-06T06:00:00Z,29.4412,-92.0613,10.0,8.11,147.0,,'11111222,11111222,99999999' 
WAVCIS,ioos:station:WAVCIS:CSI03:3,2015-07-06T07:00:00Z,29.4412,-92.0613,10.0,8.85,162.0,,'11111222,11111222,99999999' 
WAVCIS,ioos:station:WAVCIS:CSI03:3,2015-07-06T08:00:00Z,29.4412,-92.0613,10.0,7.8,172.0,,'11111222,11111222,99999999' 
WAVCIS,ioos:station:WAVCIS:CSI03:3,2015-07-06T09:00:00Z,29.4412,-92.0613,10.0,4.314,187.0,,'11111222,11111222,99999999' 
WAVCIS,ioos:station:WAVCIS:CSI03:3,2015-07-06T10:00:00Z,29.4412,-92.0613,10.0,3.147,193.0,,'11111222,11111222,99999999' 
WAVCIS,ioos:station:WAVCIS:CSI03:3,2015-07-06T11:00:00Z,29.4412,-92.0613,10.0,4.238,198.0,,'11111222,11111222,99999999' 
WAVCIS,ioos:station:WAVCIS:CSI03:3,2015-07-06T12:00:00Z,29.4412,-92.0613,10.0,3.722,195.0,,'11111222,11111222,99999999' 
WAVCIS,ioos:station:WAVCIS:CSI03:3,2015-07-06T13:00:00Z,29.4412,-92.0613,10.0,2.603,194.0,,'11111222,11111222,99999999' 
WAVCIS,ioos:station:WAVCIS:CSI03:3,2015-07-06T14:00:00Z,29.4412,-92.0613,10.0,3.161,192.0,,'11111222,11111222,99999999' 
WAVCIS,ioos:station:WAVCIS:CSI03:3,2015-07-06T15:00:00Z,29.4412,-92.0613,10.0,2.714,190.0,,'11111222,11111222,99999999' 
WAVCIS,ioos:station:WAVCIS:CSI03:3,2015-07-06T16:00:00Z,29.4412,-92.0613,10.0,2.652,183.0,,'11111222,11111222,99999999' 
WAVCIS,ioos:station:WAVCIS:CSI03:3,2015-07-06T17:00:00Z,29.4412,-92.0613,10.0,3.186,193.0,,'11111222,11111222,99999999' 
WAVCIS,ioos:station:WAVCIS:CSI03:3,2015-07-06T18:00:00Z,29.4412,-92.0613,10.0,3.642,196.0,,'11111222,11111222,99999999' 
WAVCIS,ioos:station:WAVCIS:CSI03:3,2015-07-06T19:00:00Z,29.4412,-92.0613,10.0,2.992,192.0,,'11111222,11111222,99999999' 
WAVCIS,ioos:station:WAVCIS:CSI03:3,2015-07-06T20:00:00Z,29.4412,-92.0613,10.0,3.263,184.0,,'11111222,11111222,99999999' 
WAVCIS,ioos:station:WAVCIS:CSI03:3,2015-07-06T21:00:00Z,29.4412,-92.0613,10.0,3.291,181.0,,'11111222,11111222,99999999' 
WAVCIS,ioos:station:WAVCIS:CSI03:3,2015-07-06T22:00:00Z,29.4412,-92.0613,10.0,3.93,172.0,,'11111222,11111222,99999999' 
WAVCIS,ioos:station:WAVCIS:CSI03:3,2015-07-06T23:00:00Z,29.4412,-92.0613,10.0,4.333,174.0,,'11111222,11111222,99999999' 
WAVCIS,ioos:station:WAVCIS:CSI03:3,2015-07-07T00:00:00Z,29.4412,-92.0613,10.0,5.027,172.0,,'11111222,11111222,99999999' 
WAVCIS,ioos:station:WAVCIS:CSI03:3,2015-07-07T01:00:00Z,29.4412,-92.0613,10.0,5.455,169.0,,'11111222,11111222,99999999' 
WAVCIS,ioos:station:WAVCIS:CSI03:3,2015-07-07T02:00:00Z,29.4412,-92.0613,10.0,6.818,169.0,,'11111222,11111222,99999999' 
WAVCIS,ioos:station:WAVCIS:CSI03:3,2015-07-07T03:00:00Z,29.4412,-92.0613,10.0,6.286,174.0,,'11111222,11111222,99999999' 
WAVCIS,ioos:station:WAVCIS:CSI03:3,2015-07-07T04:00:00Z,29.4412,-92.0613,10.0,7.19,170.0,,'11111222,11111222,99999999' 
WAVCIS,ioos:station:WAVCIS:CSI03:3,2015-07-07T05:00:00Z,29.4412,-92.0613,10.0,6.523,167.0,,'11111222,11111222,99999999' 
WAVCIS,ioos:station:WAVCIS:CSI03:3,2015-07-07T06:00:00Z,29.4412,-92.0613,10.0,5.7,173.0,,'11111222,11111222,99999999' 
WAVCIS,ioos:station:WAVCIS:CSI03:3,2015-07-07T07:00:00Z,29.4412,-92.0613,10.0,5.892,177.0,,'11111222,11111222,99999999' 
WAVCIS,ioos:station:WAVCIS:CSI03:3,2015-07-07T08:00:00Z,29.4412,-92.0613,10.0,6.961,178.0,,'11111222,11111222,99999999' 
WAVCIS,ioos:station:WAVCIS:CSI03:3,2015-07-07T09:00:00Z,29.4412,-92.0613,10.0,4.075,184.0,,'11111222,11111222,99999999' 
WAVCIS,ioos:station:WAVCIS:CSI03:3,2015-07-07T10:00:00Z,29.4412,-92.0613,10.0,4.986,199.0,,'11111222,11111222,99999999' 
WAVCIS,ioos:station:WAVCIS:CSI03:3,2015-07-07T11:00:00Z,29.4412,-92.0613,10.0,3.221,194.0,,'11111222,11111222,99999999' 
WAVCIS,ioos:station:WAVCIS:CSI03:3,2015-07-07T12:00:00Z,29.4412,-92.0613,10.0,3.458,188.0,,'11111222,11111222,99999999' 
WAVCIS,ioos:station:WAVCIS:CSI03:3,2015-07-07T13:00:00Z,29.4412,-92.0613,10.0,6.484,172.0,,'11111222,11111222,99999999' 
WAVCIS,ioos:station:WAVCIS:CSI03:3,2015-07-07T14:00:00Z,29.4412,-92.0613,10.0,6.425,177.0,,'11111222,11111222,99999999' 
WAVCIS,ioos:station:WAVCIS:CSI03:3,2015-07-07T15:00:00Z,29.4412,-92.0613,10.0,5.328,181.0,,'11111222,11111222,99999999' 
WAVCIS,ioos:station:WAVCIS:CSI03:3,2015-07-07T16:00:00Z,29.4412,-92.0613,10.0,4.644,184.0,,'11111222,11111222,99999999' 
WAVCIS,ioos:station:WAVCIS:CSI03:3,2015-07-07T17:00:00Z,29.4412,-92.0613,10.0,4.516,186.0,,'11111222,11111222,99999999' 
WAVCIS,ioos:station:WAVCIS:CSI03:3,2015-07-07T18:00:00Z,29.4412,-92.0613,10.0,3.06,189.0,,'11111222,11111222,99999999' 
WAVCIS,ioos:station:WAVCIS:CSI03:3,2015-07-07T19:00:00Z,29.4412,-92.0613,10.0,3.553,196.0,,'11111222,11111222,99999999' 
WAVCIS,ioos:station:WAVCIS:CSI03:3,2015-07-07T20:00:00Z,29.4412,-92.0613,10.0,4.225,198.0,,'11111222,11111222,99999999' 
WAVCIS,ioos:station:WAVCIS:CSI03:3,2015-07-07T21:00:00Z,29.4412,-92.0613,10.0,3.675,196.0,,'11111222,11111222,99999999' 
WAVCIS,ioos:station:WAVCIS:CSI03:3,2015-07-07T22:00:00Z,29.4412,-92.0613,10.0,3.542,186.0,,'11111222,11111222,99999999' 
WAVCIS,ioos:station:WAVCIS:CSI03:3,2015-07-07T23:00:00Z,29.4412,-92.0613,10.0,4.37,183.0,,'11111222,11111222,99999999' 
WAVCIS,ioos:station:WAVCIS:CSI03:3,2015-07-08T00:00:00Z,29.4412,-92.0613,10.0,4.935,183.0,,'11111222,11111222,99999999' 
WAVCIS,ioos:station:WAVCIS:CSI03:3,2015-07-08T01:00:00Z,29.4412,-92.0613,10.0,3.451,185.0,,'11111222,11111222,99999999' 
WAVCIS,ioos:station:WAVCIS:CSI03:3,2015-07-08T02:00:00Z,29.4412,-92.0613,10.0,4.406,186.0,,'11111222,11111222,99999999' 
WAVCIS,ioos:station:WAVCIS:CSI03:3,2015-07-08T03:00:00Z,29.4412,-92.0613,10.0,5.087,180.0,,'11111222,11111222,99999999' 
WAVCIS,ioos:station:WAVCIS:CSI03:3,2015-07-08T04:00:00Z,29.4412,-92.0613,10.0,3.888,183.0,,'11111222,11111222,99999999' 
WAVCIS,ioos:station:WAVCIS:CSI03:3,2015-07-08T05:00:00Z,29.4412,-92.0613,10.0,6.188,172.0,,'11111222,11111222,99999999' 
WAVCIS,ioos:station:WAVCIS:CSI03:3,2015-07-08T06:00:00Z,29.4412,-92.0613,10.0,6.074,177.0,,'11111222,11111222,99999999' 
WAVCIS,ioos:station:WAVCIS:CSI03:3,2015-07-08T07:00:00Z,29.4412,-92.0613,10.0,4.205,182.0,,'11111222,11111222,99999999' 
WAVCIS,ioos:station:WAVCIS:CSI03:3,2015-07-08T08:00:00Z,29.4412,-92.0613,10.0,5.008,180.0,,'11111222,11111222,99999999' 
WAVCIS,ioos:station:WAVCIS:CSI03:3,2015-07-08T09:00:00Z,29.4412,-92.0613,10.0,3.7,187.0,,'11111222,11111222,99999999' 
WAVCIS,ioos:station:WAVCIS:CSI03:3,2015-07-08T10:00:00Z,29.4412,-92.0613,10.0,6.344,175.0,,'11111222,11111222,99999999' 
WAVCIS,ioos:station:WAVCIS:CSI03:3,2015-07-08T11:00:00Z,29.4412,-92.0613,10.0,2.963,183.0,,'11111222,11111222,99999999' 
WAVCIS,ioos:station:WAVCIS:CSI03:3,2015-07-08T12:00:00Z,29.4412,-92.0613,10.0,4.093,185.0,,'11111222,11111222,99999999' 
WAVCIS,ioos:station:WAVCIS:CSI03:3,2015-07-08T13:00:00Z,29.4412,-92.0613,10.0,4.853,181.0,,'11111222,11111222,99999999' 
WAVCIS,ioos:station:WAVCIS:CSI03:3,2015-07-08T14:00:00Z,29.4412,-92.0613,10.0,4.312,179.0,,'11111222,11111222,99999999' 
WAVCIS,ioos:station:WAVCIS:CSI03:3,2015-07-08T15:00:00Z,29.4412,-92.0613,10.0,3.86,187.0,,'11111222,11111222,99999999' 
WAVCIS,ioos:station:WAVCIS:CSI03:3,2015-07-08T16:00:00Z,29.4412,-92.0613,10.0,3.448,193.0,,'11111222,11111222,99999999' 
WAVCIS,ioos:station:WAVCIS:CSI03:3,2015-07-08T17:00:00Z,29.4412,-92.0613,10.0,3.33,187.0,,'11111222,11111222,99999999' 
WAVCIS,ioos:station:WAVCIS:CSI03:3,2015-07-08T18:00:00Z,29.4412,-92.0613,10.0,2.68,189.0,,'11111222,11111222,99999999' 
WAVCIS,ioos:station:WAVCIS:CSI03:3,2015-07-08T19:00:00Z,29.4412,-92.0613,10.0,4.375,181.0,,'11111222,11111222,99999999' 
WAVCIS,ioos:station:WAVCIS:CSI03:3,2015-07-08T20:00:00Z,29.4412,-92.0613,10.0,3.162,191.0,,'11111222,11111222,99999999' 
WAVCIS,ioos:station:WAVCIS:CSI03:3,2015-07-08T21:00:00Z,29.4412,-92.0613,10.0,2.773,191.0,,'11111222,11111222,99999999' 
WAVCIS,ioos:station:WAVCIS:CSI03:3,2015-07-08T22:00:00Z,29.4412,-92.0613,10.0,2.085,195.0,,'11111222,11111222,99999999' 
WAVCIS,ioos:station:WAVCIS:CSI03:3,2015-07-08T23:00:00Z,29.4412,-92.0613,10.0,2.191,188.0,,'11111222,11111222,99999999' 
WAVCIS,ioos:station:WAVCIS:CSI03:3,2015-07-09T00:00:00Z,29.4412,-92.0613,10.0,3.461,171.0,,'11111222,11111222,99999999' 
WAVCIS,ioos:station:WAVCIS:CSI03:3,2015-07-09T01:00:00Z,29.4412,-92.0613,10.0,3.73,174.0,,'11111222,11111222,99999999' 
WAVCIS,ioos:station:WAVCIS:CSI03:3,2015-07-09T02:00:00Z,29.4412,-92.0613,10.0,3.585,182.0,,'11111222,11111222,99999999' 
WAVCIS,ioos:station:WAVCIS:CSI03:3,2015-07-09T03:00:00Z,29.4412,-92.0613,10.0,4.129,180.0,,'11111222,11111222,99999999' 
WAVCIS,ioos:station:WAVCIS:CSI03:3,2015-07-09T04:00:00Z,29.4412,-92.0613,10.0,4.577,162.0,,'11111222,11111222,99999999' 